Flag for Austria Weather past 2 weeks in Stockerau, Lower Austria, Austria

Now
45 °F

Passing clouds.


Feels Like: 38 °F
Forecast: 37 / 51 °F
Wind: 15 mph from West

Location: Tulln Airport

Current Time: Mar 27, 2015 at 11:21:36 PM

Latest Report: Mar 27, 2015 at 9:50 PM


Visibility: 9 mi

Pressure: 30.09 "Hg

Humidity: 76%

Dew point: 37 °F

Location of StockerauLocation

Historic Weather in Stockerau — Graph

°F

Stockerau temperature yesterday

Maximum temperature yesterday: 59 °F (at 1:50 PM)
Minimum temperature yesterday: 48 °F (at 5:50 AM)
Average temperature yesterday: 54 °F

Past Weeks' High & Low Weather Summary

 TemperatureHumidityPressure
High63 °F (Mar 24, 2:50 PM)100% (Mar 25, 4:50 AM)30.51 "Hg (Mar 25, 4:50 AM)
Low27 °F (Mar 21, 5:50 AM)29% (Mar 21, 2:50 PM)29.68 "Hg (Mar 26, 4:50 AM)
Average46 °F66%30.13 "Hg
* Reported Mar 12 9:50 PM — Mar 27 9:50 PM, Stockerau, Weather by CustomWeather, © 2015

Note: Actual official high and low records may vary slightly from our data, if they occured in-between our weather recording intervals... More about our weather records

Advertising

Stockerau weather history for previous 24 hours

 ConditionsComfort  
Time TempWeatherWind HumidityBarometerVisibility
9:50 PM
Fri, Mar 27
45 °FPassing clouds.15 mph76%30.09 "Hg9 mi
8:50 PM46 °FPartly cloudy.13 mph66%30.09 "Hg9 mi
7:50 PM45 °FPassing clouds.15 mph66%30.07 "Hg12 mi
6:50 PM46 °FPassing clouds.14 mph71%30.04 "Hg16 mi
5:50 PM48 °FBroken clouds.14 mph76%30.01 "Hg19 mi
4:50 PM50 °FBroken clouds.16 mph71%29.98 "Hg16 mi
3:50 PM50 °FPartly sunny.15 mph71%29.98 "Hg19 mi
2:50 PM48 °FBroken clouds.16 mph76%29.98 "Hg16 mi
1:50 PM52 °FBroken clouds.14 mph58%29.98 "Hg16 mi
12:50 PM50 °FBroken clouds.16 mph67%29.95 "Hg16 mi
11:50 AM48 °FPartly sunny.13 mph71%29.95 "Hg12 mi
10:50 AM48 °FLight rain. Partly sunny.17 mph76%29.95 "Hg9 mi
9:50 AM46 °FPartly sunny.18 mph82%29.95 "Hg9 mi
8:50 AM45 °FLight rain. Partly sunny.13 mph81%29.95 "Hg7 mi
7:50 AM43 °FLight rain. Broken clouds.12 mph93%29.92 "Hg6 mi
6:50 AM43 °FLight rain. Partly sunny.15 mph87%29.89 "Hg6 mi
5:50 AM45 °FLight rain. Broken clouds.16 mph87%29.86 "Hg5 mi
4:50 AM45 °FLight rain. Passing clouds.16 mph87%29.86 "Hg4 mi
Weather by CustomWeather, © 2015

See weather overviewHow to use our weather pages